x

Chambers Island, Wi (cbrw3) Weather Station

4:40pm - Sat 30th Apr 2016 All times are CDT. -5 hours from GMT.

  • Wind
    7mph, 9mph gusts
  • Air Temp 43°f
  • Sea Pressure 1019.3mb
  • Chambers Island, Wi
  • Chambers Island, Wi

More Historic Weather Station data

Upgrade to MSW Pro to gain access to the past 30 days of data for over 8000 Wavebouys and Weather Stations around the globe.

Join Pro

Comparision Forecast

View Surf forecast
   
Sat 04/30 4:40pm 7 9 mph 1019.3mb 43f
4:30pm 8 10 mph 1019.3mb 43f
4:20pm 9 11 mph 1019.3mb 43f
4:10pm 11 14 mph 1019.6mb 45f
4:00pm 9 11 mph 1019.6mb 44f
3:40pm 7 14 mph 1020mb 47f
3:30pm 11 13 mph 1020.3mb 49f
3:20pm 10 14 mph 1020.3mb 49f
3:10pm 9 11 mph 1020.3mb 49f
3:00pm 9 11 mph 1020.7mb 48f
2:40pm 11 17 mph 1020.7mb 48f
2:30pm 11 15 mph 1020.3mb 50f
2:20pm 11 14 mph 1020.7mb 49f
2:10pm 11 16 mph 1020.7mb 49f
2:00pm 11 15 mph 1021mb 49f
1:40pm 13 16 mph 1021mb 48f
1:30pm 14 16 mph 1021mb 48f
1:20pm 11 15 mph 1021mb 46f
1:10pm 13 15 mph 1021mb 44f
1:00pm 14 16 mph 1021mb 44f
12:40pm 11 15 mph 1021.7mb 45f
12:30pm 13 15 mph 1021.7mb 46f
12:20pm 11 15 mph 1021.7mb 44f
12:10pm 13 15 mph 1022mb 44f
12:00pm 11 15 mph 1022mb 44f
11:40am 10 13 mph 1022.4mb 43f
11:30am 11 13 mph 1022.4mb 43f
11:20am 11 14 mph 1022.4mb 43f
11:10am 10 13 mph 1022.4mb 42f
11:00am 10 14 mph 1022.4mb 42f
10:40am 10 14 mph 1022.7mb 42f
10:30am 11 15 mph 1022.4mb 42f
10:20am 14 16 mph 1022.4mb 41f
10:10am 14 15 mph 1022.4mb 41f
10:00am 14 16 mph 1022.4mb 41f
9:40am 15 17 mph 1022.4mb 41f
9:30am 14 17 mph 1022.4mb 41f
9:20am 16 17 mph 1022.4mb 41f
9:10am 14 18 mph 1022.4mb 40f
9:00am 15 17 mph 1022.4mb 40f
8:40am 11 15 mph 1022.4mb 40f
8:30am 13 14 mph 1022.7mb 40f
8:20am 10 13 mph 1023mb 41f
8:10am 8 14 mph 1023mb 41f
8:00am 11 16 mph 1022.7mb 40f
7:40am 13 16 mph 1022.4mb 41f
7:30am 11 14 mph 1022.4mb 41f
7:20am 11 15 mph 1022.4mb 41f
7:10am 11 15 mph 1022mb 41f
7:00am 11 15 mph 1022mb 41f
6:40am 10 14 mph 1022mb 41f
6:30am 10 13 mph 1022mb 41f
6:20am 10 14 mph 1022.4mb 41f
6:10am 10 13 mph 1022mb 41f
6:00am 10 13 mph 1022mb 41f
5:40am 10 13 mph 1021.7mb 40f
5:30am 10 13 mph 1021.7mb 40f
5:20am 9 13 mph 1022mb 40f
5:10am 13 15 mph 1021.7mb 40f
5:00am 13 16 mph 1021.7mb 40f
4:40am 14 16 mph 1021mb 40f
4:30am 14 16 mph 1021.3mb 40f
4:20am 14 15 mph 1021.3mb 40f
4:10am 14 15 mph 1021.7mb 40f
4:00am 11 15 mph 1021.7mb 40f
3:40am 11 14 mph 1022mb 40f
3:30am 10 11 mph 1022mb 40f
3:20am 9 10 mph 1022.4mb 40f
3:10am 9 10 mph 1022.4mb 40f
3:00am 8 10 mph 1022.7mb 40f
2:40am 9 10 mph 1022.7mb 40f
2:30am 9 13 mph 1022.7mb 40f
2:20am 9 13 mph 1022.4mb 41f
2:10am 9 13 mph 1022mb 41f
2:00am 10 13 mph 1022mb 41f
1:40am 9 11 mph 1022mb 41f
1:30am 10 14 mph 1022mb 42f
1:20am 9 11 mph 1022.4mb 42f
1:10am 10 13 mph 1022mb 42f
1:00am 9 11 mph 1022mb 42f
12:40am 9 10 mph 1022mb 42f
12:30am 9 11 mph 1022mb 42f
12:20am 9 11 mph 1021.7mb 43f
12:10am 10 13 mph 1021.7mb 43f
12:00am 10 13 mph 1021.7mb 44f
Fri 04/29 11:40pm 9 11 mph 1021.3mb 45f
11:30pm 3 8 mph 1021.7mb 41f
11:20pm  -  2 mph 1021.3mb 39f
11:10pm  -  2 mph 1021.3mb 39f
11:00pm  -  2 mph 1021.3mb 39f
10:40pm  -  3 mph 1021.7mb 40f
10:30pm 2 3 mph 1021.7mb 40f
10:20pm  -  1 mph 1021.7mb 39f
10:10pm  -  1 mph 1021.7mb 40f
10:00pm  -  2 mph 1021.7mb 41f
9:40pm  -  2 mph 1021.7mb 40f
9:30pm 1 2 mph 1021.7mb 40f
9:20pm  -  mph 1021.7mb 40f
9:10pm  -  mph 1021.7mb 39f
9:00pm  -  mph 1021.7mb 40f
8:40pm  -  2 mph 1021.7mb 42f
8:30pm 1 2 mph 1021.7mb 43f
8:20pm 2
mph
1021.7mb 43f
8:10pm  -  mph 1021.7mb 43f
8:00pm  -  1 mph 1021.7mb 44f
7:40pm  -  2 mph 1021.7mb 46f
7:30pm 1 6 mph 1021.3mb 46f
7:20pm  -  5 mph 1021mb 49f
7:10pm 3 5 mph 1021mb 51f
7:00pm 2 5 mph 1021mb 52f
6:40pm 5 7 mph 1021mb 53f
6:30pm 5 7 mph 1020.7mb 53f
6:20pm 2 7 mph 1021mb 53f
6:10pm  -  1 mph 1021mb 52f
6:00pm  -  2 mph 1020.7mb 49f
5:40pm 1 2 mph 1021mb 51f
5:30pm  -  3 mph 1020.7mb 51f
5:20pm 2 3 mph 1020.7mb 51f
5:10pm 1 2 mph 1020.7mb 55f
5:00pm 1 2 mph 1021mb 52f
4:50pm 3 5 mph 1020.7mb 50f
4:40pm 5 6 mph 1020.7mb 49f
4:30pm 5 7 mph 1020.7mb 48f
4:20pm 6 7 mph 1020.3mb 47f
4:10pm 6 7 mph 1020.7mb 47f
4:00pm 5 7 mph 1020.7mb 46f
3:50pm 7 8 mph 1020.7mb 45f
3:40pm 6 9 mph 1020.3mb 46f
3:30pm 8 9 mph 1020.3mb 46f
3:20pm 7
mph
1021mb 46f
3:10pm 6 7 mph 1021.3mb 46f
3:00pm 5
mph
1021.7mb 47f
2:50pm 2 3 mph 1021.7mb 49f
2:40pm 2 3 mph 1021.7mb 49f
2:30pm 2 5 mph 1021.7mb 48f
2:20pm 3 5 mph 1022mb 47f
2:10pm 2 5 mph 1021.7mb 48f
2:00pm 2 3 mph 1021.7mb 48f
1:50pm 2 5 mph 1021.7mb 46f
1:40pm 5 7 mph 1021.3mb 46f
1:30pm 7 8 mph 1021.3mb 46f
1:20pm 6 7 mph 1021mb 46f
1:10pm 7 8 mph 1021mb 46f
1:00pm 7 11 mph 1021mb 44f
12:50pm 10 13 mph 1020.7mb 43f
12:40pm 10 14 mph 1020.7mb 42f
12:30pm 13 15 mph 1020.7mb 42f
12:20pm 14 16 mph 1020.7mb 41f
12:10pm 11 14 mph 1020.7mb 42f
12:00pm 9 11 mph 1020.7mb 43f
11:50am 9 11 mph 1021mb 42f
11:40am 9 13 mph 1021.3mb 42f
11:30am 11 13 mph 1021.3mb 41f
11:20am 10 13 mph 1021.3mb 41f
11:10am 10 11 mph 1021.3mb 41f
11:00am 10 14 mph 1021.3mb 40f
10:50am 10 13 mph 1021.3mb 40f
10:40am 10 15 mph 1021mb 40f
10:30am 11 14 mph 1021.3mb 40f
10:20am 11 14 mph 1021.3mb 40f
10:10am 11 13 mph 1021mb 41f
10:00am 11 13 mph 1021.3mb 41f
9:50am 9 11 mph 1021.3mb 41f
9:40am 10 13 mph 1021.3mb 40f
9:30am 10 13 mph 1021.3mb 40f
9:20am 10 11 mph 1021mb 40f
9:10am 9 10 mph 1021.3mb 40f
9:00am 9 11 mph 1021.3mb 40f
8:50am 9 10 mph 1021.3mb 40f
8:40am 9 11 mph 1021.3mb 40f
8:30am 9 11 mph 1021.3mb 40f
8:20am 10 11 mph 1021.3mb 40f
8:10am 8 11 mph 1021.3mb 40f
8:00am 9 11 mph 1021mb 40f
7:50am 8 10 mph 1021.3mb 40f
7:40am 10 14 mph 1020.7mb 40f
7:30am 13 15 mph 1020.3mb 40f
7:20am 13 16 mph 1020.3mb 40f
7:10am 14 17 mph 1020.3mb 40f
7:00am 13 15 mph 1020.3mb 40f
6:50am 13 16 mph 1020.3mb 40f
6:40am 14 17 mph 1020.3mb 40f
6:30am 13 15 mph 1020mb 40f
6:20am 13 14 mph 1020mb 40f
6:10am 13 16 mph 1019.6mb 40f
6:00am 14 15 mph 1019.6mb 40f
5:50am 13 14 mph 1019.6mb 40f
5:40am 13 14 mph 1019.6mb 40f
5:30am 10 14 mph 1019.6mb 40f
5:20am 11 14 mph 1019.3mb 40f
5:10am 11 13 mph 1019.3mb 40f
5:00am 11 13 mph 1019.3mb 40f
4:50am 8 10 mph 1019.3mb 40f
4:40am 10 11 mph 1019.3mb 40f
4:30am 10 11 mph 1019.3mb 40f
4:20am 9 11 mph 1019.6mb 40f
4:10am 10 11 mph 1019.3mb 40f
4:00am 9 11 mph 1019.3mb 40f
3:50am 9 11 mph 1019.3mb 40f
3:40am 9 11 mph 1019.3mb 40f
3:30am 10 13 mph 1019.3mb 40f
3:20am 10 14 mph 1019mb 40f
3:10am 11 14 mph 1019mb 41f
3:00am 11 14 mph 1019mb 41f
2:50am 10 13 mph 1019mb 40f
2:40am 9 11 mph 1019mb 41f
2:30am 10 11 mph 1019mb 41f
2:20am 8 10 mph 1019mb 41f
2:10am 7 10 mph 1019mb 41f
2:00am 9 11 mph 1019mb 41f
1:50am 8 10 mph 1019mb 41f
1:40am 9 10 mph 1019mb 41f
1:30am 9 13 mph 1019mb 41f
1:20am 10 13 mph 1019mb 41f
1:10am 10 13 mph 1019mb 42f
1:00am 10 13 mph 1019mb 42f
12:40am 8 10 mph 1019.3mb 41f
12:30am 8 10 mph 1019.3mb 41f
12:20am 8
mph
1019.3mb 41f
12:10am 6 10 mph 1019.3mb 41f
12:00am 7 14 mph 1019.3mb 41f
Thu 04/28 11:50pm 9 14 mph 1019mb 41f
11:40pm 13 14 mph 1019mb 41f
11:30pm 13 17 mph 1019.3mb 41f
11:20pm 14 17 mph 1019.3mb 42f
11:10pm 6 8 mph 1019.3mb 41f
11:00pm 5 6 mph 1019.3mb 41f
10:50pm 6 7 mph 1019.3mb 41f
10:40pm 5 6 mph 1019.3mb 41f
10:30pm 6 8 mph 1019mb 41f
10:20pm 7 8 mph 1019mb 40f
10:10pm 5 6 mph 1019.3mb 40f
10:00pm 3 6 mph 1019.3mb 40f
9:50pm 5 7 mph 1019.3mb 40f
9:40pm 5 8 mph 1019.3mb 40f
9:30pm 6 11 mph 1019.3mb 40f
9:20pm 10 11 mph 1019mb 40f
9:10pm 9 11 mph 1019mb 40f
9:00pm 9 11 mph 1018.6mb 40f
8:50pm 8 10 mph 1018.6mb 41f
8:40pm 8 10 mph 1018.6mb 41f
8:30pm 8 10 mph 1018.6mb 41f
8:20pm 3 8 mph 1018.6mb 42f
8:10pm 5 7 mph 1018.6mb 42f
8:00pm 5 7 mph 1018.6mb 42f
7:50pm 5 7 mph 1018.3mb 42f
7:40pm 5 8 mph 1018.3mb 43f
7:30pm 2 7 mph 1018.3mb 43f
7:20pm 3 7 mph 1018.3mb 43f
7:10pm 6 8 mph 1018.3mb 43f
7:00pm 5 7 mph 1017.9mb 42f
6:50pm 7 9 mph 1017.9mb 42f
6:40pm 5 7 mph 1017.6mb 42f
6:30pm 5 9 mph 1017.9mb 41f
6:20pm 8 9 mph 1017.9mb 41f
6:10pm 6 8 mph 1017.9mb 42f
6:00pm 6 8 mph 1017.9mb 44f
5:50pm 7 9 mph 1017.9mb 44f
5:40pm 9 11 mph 1017.9mb 44f
5:30pm 8 11 mph 1017.9mb 44f
5:20pm 9 13 mph 1017.9mb 43f
5:10pm 10 13 mph 1017.9mb 43f
5:00pm 9 13 mph 1017.9mb 43f
4:50pm 9 13 mph 1017.9mb 43f
4:40pm 10 13 mph 1017.9mb 42f
4:30pm 9 10 mph 1017.9mb 41f
4:20pm 8 13 mph 1017.9mb 41f
4:10pm 9 11 mph 1018.3mb 41f
4:00pm 10 13 mph 1017.9mb 40f
3:50pm 11 14 mph 1017.9mb 40f
3:40pm 13 14 mph 1017.9mb 40f
3:30pm 9 14 mph 1018.3mb 41f
3:20pm 11 15 mph 1018.3mb 41f
3:10pm 10 14 mph 1018.3mb 41f
3:00pm 10 15 mph 1018.3mb 41f
2:50pm 10 14 mph 1018.3mb 40f
2:40pm 11 14 mph 1018.3mb 40f
2:30pm 10 13 mph 1018.6mb 41f
2:20pm 11 14 mph 1018.6mb 41f
2:10pm 11 14 mph 1018.6mb 42f
2:00pm 11 15 mph 1018.6mb 42f
1:50pm 13 16 mph 1018.6mb 42f
1:40pm 13 16 mph 1018.6mb 42f
1:30pm 11 15 mph 1018.6mb 42f
1:20pm 11 16 mph 1018.6mb 42f
1:10pm 9 13 mph 1018.6mb 42f
1:00pm 10 14 mph 1018.6mb 42f
12:40pm 11 15 mph 1018.6mb 43f
12:30pm 11 15 mph 1018.6mb 43f
12:20pm 10 14 mph 1018.6mb 43f
12:10pm 10 16 mph 1018.3mb 43f
12:00pm 14 15 mph 1018.3mb 43f
11:50am 13 16 mph 1018.3mb 43f
11:40am 13 16 mph 1018.3mb 43f
11:30am 11 15 mph 1018.3mb 42f
11:20am 13 18 mph 1018.3mb 42f
11:10am 13 17 mph 1018.3mb 42f
11:00am 13 18 mph 1018.3mb 42f
10:50am 10 14 mph 1017.9mb 41f
10:40am 11 18 mph 1017.9mb 42f
10:30am 13 17 mph 1017.9mb 42f
10:20am 10 16 mph 1017.9mb 42f
10:10am 13 16 mph 1017.9mb 42f
10:00am 11 16 mph 1017.9mb 42f
9:50am 13 16 mph 1017.6mb 42f
9:40am 11 15 mph 1017.6mb 42f
9:30am 10 15 mph 1017.6mb 41f
9:20am 10 15 mph 1017.6mb 40f
9:10am 10 16 mph 1017.6mb 40f
9:00am 10 16 mph 1017.6mb 40f
8:50am 13 15 mph 1017.6mb 40f
8:40am 10 14 mph 1017.6mb 40f
8:30am 10 15 mph 1017.3mb 40f
8:20am 9 13 mph 1017.3mb 40f
8:10am 10 15 mph 1017.3mb 40f
8:00am 11 15 mph 1017.3mb 39f
7:50am 11 20 mph 1017.3mb 39f
7:40am 14 16 mph 1017.3mb 39f
7:30am 11 15 mph 1017.3mb 39f
7:20am 11 15 mph 1017.3mb 39f
7:10am 10 14 mph 1017.6mb 38f
7:00am 11 15 mph 1017.3mb 38f
6:50am 10 17 mph 1017.6mb 38f
6:40am 10 16 mph 1017.3mb 38f
6:30am 14 16 mph 1017.3mb 38f
6:20am 13 17 mph 1017.3mb 38f
6:10am 14 18 mph 1017.3mb 38f
6:00am 16 18 mph 1016.9mb 38f
5:50am 15 17 mph 1017.3mb 38f
5:40am 14 18 mph 1017.3mb 38f
5:30am 15 18 mph 1016.9mb 38f
5:20am 13 17 mph 1016.9mb 38f
5:10am 14 17 mph 1016.9mb 38f
5:00am 13 17 mph 1016.9mb 38f
4:50am 11 17 mph 1016.9mb 38f
4:40am 15 20 mph 1016.9mb 38f
4:30am 14 20 mph 1016.9mb 38f
4:20am 16 20 mph 1016.9mb 38f
4:10am 16 20 mph 1016.9mb 37f
4:00am 14 18 mph 1016.9mb 38f
3:50am 16 20 mph 1016.9mb 37f
3:40am 17 20 mph 1016.9mb 38f
3:30am 13 18 mph 1017.3mb 37f
3:20am 14 21 mph 1016.9mb 37f
3:10am 16 22 mph 1016.9mb 37f
3:00am 20 22 mph 1016.9mb 37f
2:50am 20 22 mph 1016.9mb 37f
2:40am 20 22 mph 1016.9mb 37f
2:30am 18 22 mph 1016.9mb 37f
2:20am 18 22 mph 1016.9mb 38f
2:10am 18 21 mph 1017.3mb 38f
2:00am 16 20 mph 1017.6mb 37f
1:50am 17 20 mph 1017.6mb 37f
1:40am 16 23 mph 1017.6mb 37f
1:30am 20 23 mph 1017.3mb 37f
1:20am 18 25 mph 1017.3mb 37f
1:10am 24 28 mph 1016.6mb 37f
1:00am 24 30 mph 1016.3mb 38f
12:40am 23 28 mph 1016.6mb 38f
12:30am 24 28 mph 1016.6mb 38f
12:20am 20 25 mph 1016.6mb 38f
12:10am 23 26 mph 1016.6mb 38f
12:00am 22 25 mph 1016.9mb 38f
Wed 04/27 11:50pm 22 25 mph 1016.9mb 38f
11:40pm 21 26 mph 1016.6mb 38f
11:30pm 23 26 mph 1016.6mb 38f
11:20pm 23 26 mph 1016.9mb 38f
11:10pm 22 26 mph 1016.9mb 38f
11:00pm 23 26 mph 1016.6mb 38f
10:50pm 22 26 mph 1016.6mb 38f
10:40pm 22 26 mph 1016.9mb 38f
10:30pm 22 29 mph 1016.6mb 39f
10:20pm 23 29 mph 1016.3mb 39f
10:10pm 23 25 mph 1016.3mb 39f
10:00pm 20 23 mph 1016.6mb 40f
9:50pm 18 21 mph 1016.6mb 40f
9:40pm 14 16 mph 1016.6mb 40f
9:30pm 14 16 mph 1016.3mb 40f
9:20pm 14 16 mph 1016.3mb 39f
9:10pm 13 15 mph 1016.3mb 40f
9:00pm 11 13 mph 1016.3mb 41f
8:50pm 10 13 mph 1016.3mb 41f
8:40pm 9 11 mph 1016.3mb 42f
8:30pm 8 10 mph 1016.3mb 42f
8:20pm 7 9 mph 1016.6mb 42f
8:10pm 5 7 mph 1016.6mb 42f
8:00pm 6 8 mph 1016.3mb 42f
7:50pm 6 7 mph 1016.3mb 42f
7:40pm 6 8 mph 1016.3mb 42f
7:30pm 7 10 mph 1016.3mb 43f
7:20pm 8 10 mph 1016.3mb 43f
7:10pm 7 8 mph 1016.6mb 43f
7:00pm 6 9 mph 1016.9mb 43f
6:50pm 8 10 mph 1016.6mb 43f
6:40pm 7 9 mph 1016.6mb 44f
6:30pm 7 9 mph 1016.9mb 44f
6:20pm 6 9 mph 1016.9mb 44f
6:10pm 6 9 mph 1016.9mb 44f
6:00pm 7 10 mph 1016.6mb 44f
5:50pm 8 11 mph 1016.6mb 44f
5:40pm 8 11 mph 1016.6mb 44f
5:30pm 8 10 mph 1016.6mb 44f
5:20pm 9 13 mph 1016.6mb 45f
5:10pm 9 13 mph 1016.6mb 45f
5:00pm 10 11 mph 1016.6mb 45f
4:50pm 9 13 mph 1016.9mb 44f
4:40pm 9 11 mph 1016.9mb 44f
4:30pm 9 11 mph 1016.9mb 44f
4:20pm 9 13 mph 1016.9mb 44f
4:10pm 10 14 mph 1016.9mb 44f
4:00pm 10 14 mph 1016.9mb 44f
3:50pm 10 15 mph 1016.9mb 44f
3:40pm 11 15 mph 1016.9mb 44f
3:30pm 11 14 mph 1016.9mb 44f
3:20pm 9 13 mph 1017.3mb 44f
3:10pm 9 14 mph 1017.6mb 44f
3:00pm 7 14 mph 1017.6mb 44f
2:50pm 10 14 mph 1017.9mb 43f
2:40pm 9 14 mph 1017.9mb 43f
2:30pm 13 16 mph 1017.9mb 43f
2:20pm 13 17 mph 1017.9mb 44f
2:10pm 13 17 mph 1017.9mb 43f
2:00pm 11 16 mph 1017.9mb 43f
1:50pm 14 18 mph 1017.9mb 43f
1:40pm 14 20 mph 1017.9mb 42f
1:30pm 14 17 mph 1017.9mb 42f
1:20pm 11 17 mph 1017.9mb 40f
1:10pm 14 17 mph 1018.3mb 40f
1:00pm 14 18 mph 1018.6mb 40f
12:50pm 15 17 mph 1018.6mb 40f
12:40pm 14 17 mph 1018.6mb 39f
12:30pm 14 17 mph 1019mb 39f
12:20pm 15 17 mph 1019mb 39f
12:10pm 15 18 mph 1019mb 39f
12:00pm 16 20 mph 1019mb 39f
11:40am 16 21 mph 1019mb 38f
11:30am 16 18 mph 1019mb 39f
11:20am 17 18 mph 1019.3mb 38f
11:10am 16 20 mph 1019.3mb 38f
11:00am 17 20 mph 1019mb 38f
10:50am 16 21 mph 1019mb 38f
10:40am 17 22 mph 1019mb 38f
10:30am 20 22 mph 1018.6mb 38f
10:20am 18 23 mph 1018.6mb 38f
10:10am 21 22 mph 1018.6mb 38f
10:00am 17 22 mph 1019mb 38f
9:50am 18 22 mph 1019mb 38f
9:40am 17 21 mph 1019.3mb 38f
9:30am 17 22 mph 1019.3mb 38f
9:20am 20 22 mph 1019.3mb 38f
9:10am 18 22 mph 1019.3mb 38f
9:00am 18 22 mph 1019.3mb 38f
8:50am 18 21 mph 1019.3mb 38f
8:40am 17 21 mph 1019.3mb 38f
8:30am 17 21 mph 1019.3mb 38f
8:20am 18 22 mph 1019.3mb 38f
8:10am 18 21 mph 1019.3mb 38f
8:00am 16 21 mph 1019.3mb 38f
7:50am 18 21 mph 1019mb 38f
7:40am 18 23 mph 1019mb 38f
7:30am 21 23 mph 1018.3mb 38f
7:20am 21 23 mph 1018.6mb 38f
7:10am 20 23 mph 1018.6mb 38f
7:00am 18 22 mph 1019mb 38f
6:50am 18 22 mph 1018.6mb 38f
6:40am 18 22 mph 1018.6mb 39f
6:30am 20 22 mph 1018.6mb 38f
6:20am 18 23 mph 1018.6mb 38f
6:10am 18 23 mph 1018.6mb 38f
6:00am 18 21 mph 1019mb 38f
5:40am 16 20 mph 1018.6mb 38f
5:30am 16 20 mph 1019mb 38f
5:20am 16 18 mph 1019.3mb 38f
5:10am 15 17 mph 1019mb 38f
5:00am 15 17 mph 1019mb 38f
4:50am 14 17 mph 1019mb 37f
4:40am 13 15 mph 1019mb 38f
4:30am 14 15 mph 1018.6mb 37f
4:20am 16 18 mph 1018.3mb 38f
4:10am 16 17 mph 1018.3mb 38f
4:00am 14 16 mph 1018.3mb 38f
3:50am 13 14 mph 1018.3mb 37f
3:40am 11 14 mph 1018.6mb 37f
3:30am 14 16 mph 1018.6mb 37f
3:20am 14 16 mph 1018.3mb 37f
3:10am 14 17 mph 1018.6mb 37f
3:00am 14 17 mph 1018.6mb 37f
2:50am 15 16 mph 1018.6mb 37f
2:40am 13 17 mph 1018.3mb 37f
2:30am 15 17 mph 1018.6mb 37f
2:20am 14 16 mph 1018.6mb 37f
2:10am 16 18 mph 1018.3mb 37f
2:00am 16 17 mph 1017.9mb 37f
1:50am 14 17 mph 1017.6mb 37f
1:40am 14 17 mph 1018.6mb 38f
1:30am 14 17 mph 1018.3mb 38f
1:20am 14 15 mph 1017.9mb 38f
1:10am 10 11 mph 1018.6mb 37f
1:00am 9 13 mph 1018.6mb 37f
12:50am 10 13 mph 1018.3mb 37f
12:40am 10 13 mph 1018.6mb 38f
12:30am 10 14 mph 1018.6mb 38f
12:20am 10 14 mph 1018.6mb 38f
12:10am 13 16 mph 1018.6mb 38f
12:00am 14 16 mph 1018.3mb 38f
Tue 04/26 11:50pm 13 15 mph 1018.6mb 38f
11:40pm 11 15 mph 1018.6mb 38f
11:30pm 13 15 mph 1018.6mb 38f
11:20pm 14 16 mph 1018.6mb 39f
11:10pm 15 21 mph 1018.3mb 39f
11:00pm 17 20 mph 1018.3mb 39f